Time,TemperatureF,DewpointF,PressureIn,WindDirection,WindDirectionDegrees,WindSpeedMPH,WindSpeedGustMPH,Humidity,HourlyPrecipIn,Conditions,Clouds,dailyrainin,SoftwareType,DateUTC
2013-06-10 00:02:00,76.0,25.0,29.66,WNW,288,2.0,-999.0,15,-99.99,,,-99.99,,2013-06-10 07:02:00,
2013-06-10 00:11:00,76.0,25.0,29.66,WNW,288,2.0,-999.0,15,-99.99,,,-99.99,,2013-06-10 07:11:00,
2013-06-10 00:22:00,76.0,27.0,29.66,WNW,289,1.0,-999.0,16,-99.99,,,-99.99,,2013-06-10 07:22:00,
2013-06-10 00:32:00,76.0,27.0,29.66,West,281,2.0,-999.0,16,-99.99,,,-99.99,,2013-06-10 07:32:00,
2013-06-10 00:42:00,76.0,27.0,29.66,West,281,2.0,-999.0,16,-99.99,,,-99.99,,2013-06-10 07:42:00,
2013-06-10 00:52:00,76.0,27.0,29.66,WNW,289,1.0,-999.0,16,-99.99,,,-99.99,,2013-06-10 07:52:00,
2013-06-10 01:02:00,76.0,25.0,29.65,WNW,289,2.0,-999.0,15,-99.99,,,-99.99,,2013-06-10 08:02:00,
2013-06-10 01:12:00,76.0,25.0,29.65,WNW,289,2.0,-999.0,15,-99.99,,,-99.99,,2013-06-10 08:12:00,
2013-06-10 01:21:00,75.0,24.0,29.65,WNW,288,1.0,-999.0,15,-99.99,,,-99.99,,2013-06-10 08:21:00,
2013-06-10 01:32:00,75.0,26.0,29.65,WNW,288,0.0,-999.0,16,-99.99,,,-99.99,,2013-06-10 08:32:00,
2013-06-10 01:42:00,75.0,26.0,29.65,WNW,288,0.0,-999.0,16,-99.99,,,-99.99,,2013-06-10 08:42:00,
2013-06-10 01:52:00,74.0,25.0,29.65,WNW,288,1.0,-999.0,16,-99.99,,,-99.99,,2013-06-10 08:52:00,
2013-06-10 02:02:00,74.0,25.0,29.65,WNW,288,1.0,-999.0,16,-99.99,,,-99.99,,2013-06-10 09:02:00,
2013-06-10 02:11:00,74.0,25.0,29.65,WNW,288,1.0,-999.0,16,-99.99,,,-99.99,,2013-06-10 09:11:00,
2013-06-10 02:22:00,74.0,25.0,29.65,WNW,287,1.0,-999.0,16,-99.99,,,-99.99,,2013-06-10 09:22:00,
2013-06-10 02:32:00,74.0,25.0,29.65,WNW,287,1.0,-999.0,16,-99.99,,,-99.99,,2013-06-10 09:32:00,
2013-06-10 02:42:00,74.0,25.0,29.65,WNW,287,1.0,-999.0,16,-99.99,,,-99.99,,2013-06-10 09:42:00,
2013-06-10 02:53:00,74.0,25.0,29.65,WNW,287,0.0,-999.0,16,-99.99,,,-99.99,,2013-06-10 09:53:00,
2013-06-10 03:02:00,74.0,25.0,29.65,WNW,287,0.0,-999.0,16,-99.99,,,-99.99,,2013-06-10 10:02:00,
2013-06-10 03:12:00,74.0,25.0,29.65,WNW,287,0.0,-999.0,16,-99.99,,,-99.99,,2013-06-10 10:12:00,
2013-06-10 03:22:00,73.0,24.0,29.65,WNW,287,0.0,-999.0,16,-99.99,,,-99.99,,2013-06-10 10:22:00,
2013-06-10 03:33:00,70.0,26.0,29.66,WNW,287,0.0,-999.0,19,-99.99,,,-99.99,,2013-06-10 10:33:00,
2013-06-10 03:42:00,70.0,26.0,29.66,WNW,287,0.0,-999.0,19,-99.99,,,-99.99,,2013-06-10 10:42:00,
2013-06-10 03:52:00,69.0,25.0,29.66,WNW,287,0.0,-999.0,19,-99.99,,,-99.99,,2013-06-10 10:52:00,
2013-06-10 04:02:00,69.0,25.0,29.66,WNW,287,0.0,-999.0,19,-99.99,,,-99.99,,2013-06-10 11:02:00,
2013-06-10 04:12:00,69.0,25.0,29.66,WNW,287,0.0,-999.0,19,-99.99,,,-99.99,,2013-06-10 11:12:00,
2013-06-10 04:22:00,68.0,24.0,29.66,WNW,287,0.0,-999.0,19,-99.99,,,-99.99,,2013-06-10 11:22:00,
2013-06-10 04:32:00,69.0,25.0,29.66,WNW,287,0.0,-999.0,19,-99.99,,,-99.99,,2013-06-10 11:32:00,
2013-06-10 04:42:00,69.0,25.0,29.66,WNW,287,0.0,-999.0,19,-99.99,,,-99.99,,2013-06-10 11:42:00,
2013-06-10 04:52:00,67.0,25.0,29.66,WNW,287,0.0,-999.0,20,-99.99,,,-99.99,,2013-06-10 11:52:00,
2013-06-10 05:02:00,66.0,25.0,29.67,WNW,287,0.0,-999.0,21,-99.99,,,-99.99,,2013-06-10 12:02:00,
2013-06-10 05:12:00,66.0,25.0,29.67,WNW,287,0.0,-999.0,21,-99.99,,,-99.99,,2013-06-10 12:12:00,
2013-06-10 05:22:00,66.0,25.0,29.67,WNW,287,0.0,-999.0,21,-99.99,,,-99.99,,2013-06-10 12:22:00,
2013-06-10 05:32:00,64.0,25.0,29.68,WNW,287,0.0,-999.0,23,-99.99,,,-99.99,,2013-06-10 12:32:00,
2013-06-10 05:42:00,64.0,25.0,29.68,WNW,287,0.0,-999.0,23,-99.99,,,-99.99,,2013-06-10 12:42:00,
2013-06-10 05:52:00,63.0,26.0,29.68,NNW,334,0.0,-999.0,24,-99.99,,,-99.99,,2013-06-10 12:52:00,
2013-06-10 06:02:00,64.0,25.0,29.68,NNW,334,0.0,-999.0,23,-99.99,,,-99.99,,2013-06-10 13:02:00,
2013-06-10 06:11:00,64.0,25.0,29.68,NNW,334,0.0,-999.0,23,-99.99,,,-99.99,,2013-06-10 13:11:00,
2013-06-10 06:22:00,64.0,28.0,29.69,NNW,334,0.0,-999.0,26,-99.99,,,-99.99,,2013-06-10 13:22:00,
2013-06-10 06:32:00,65.0,31.0,29.70,NNW,334,0.0,-999.0,28,-99.99,,,-99.99,,2013-06-10 13:32:00,
2013-06-10 06:42:00,65.0,31.0,29.70,NNW,334,0.0,-999.0,28,-99.99,,,-99.99,,2013-06-10 13:42:00,
2013-06-10 06:52:00,66.0,35.0,29.70,NNW,334,0.0,-999.0,32,-99.99,,,-99.99,,2013-06-10 13:52:00,
2013-06-10 07:02:00,68.0,39.0,29.70,NNW,334,0.0,-999.0,34,-99.99,,,-99.99,,2013-06-10 14:02:00,
2013-06-10 07:32:00,74.0,32.0,29.70,NNW,334,0.0,-999.0,21,-99.99,,,-99.99,,2013-06-10 14:32:00,
2013-06-10 07:42:00,74.0,32.0,29.70,NNW,334,0.0,-999.0,21,-99.99,,,-99.99,,2013-06-10 14:42:00,
2013-06-10 07:52:00,77.0,27.0,29.70,NNW,335,0.0,-999.0,16,-99.99,,,-99.99,,2013-06-10 14:52:00,
2013-06-10 08:02:00,80.0,28.0,29.70,NNW,340,0.0,-999.0,15,-99.99,,,-99.99,,2013-06-10 15:02:00,
2013-06-10 08:12:00,80.0,28.0,29.70,NNW,340,0.0,-999.0,15,-99.99,,,-99.99,,2013-06-10 15:12:00,
2013-06-10 08:22:00,82.0,26.0,29.70,NNE,19,1.0,-999.0,13,-99.99,,,-99.99,,2013-06-10 15:22:00,
2013-06-10 08:32:00,83.0,27.0,29.71,NNE,30,1.0,-999.0,13,-99.99,,,-99.99,,2013-06-10 15:32:00,
2013-06-10 08:43:00,83.0,27.0,29.71,NNE,30,1.0,-999.0,13,-99.99,,,-99.99,,2013-06-10 15:43:00,
2013-06-10 08:53:00,84.0,28.0,29.71,ENE,69,0.0,-999.0,13,-99.99,,,-99.99,,2013-06-10 15:53:00,
2013-06-10 09:03:00,84.0,28.0,29.72,East,94,0.0,-999.0,13,-99.99,,,-99.99,,2013-06-10 16:03:00,
2013-06-10 09:12:00,84.0,28.0,29.72,East,94,0.0,-999.0,13,-99.99,,,-99.99,,2013-06-10 16:12:00,
2013-06-10 09:22:00,85.0,27.0,29.71,East,80,0.0,-999.0,12,-99.99,,,-99.99,,2013-06-10 16:22:00,
2013-06-10 09:33:00,85.0,25.0,29.71,NNE,28,1.0,-999.0,11,-99.99,,,-99.99,,2013-06-10 16:33:00,
2013-06-10 09:42:00,87.0,28.0,29.71,NNE,19,0.0,-999.0,12,-99.99,,,-99.99,,2013-06-10 16:42:00,
2013-06-10 09:52:00,87.0,28.0,29.71,NNE,19,0.0,-999.0,12,-99.99,,,-99.99,,2013-06-10 16:52:00,
2013-06-10 10:03:00,88.0,27.0,29.71,NNE,28,1.0,-999.0,11,-99.99,,,-99.99,,2013-06-10 17:03:00,
2013-06-10 10:14:00,90.0,28.0,29.71,NNE,19,0.0,-999.0,11,-99.99,,,-99.99,,2013-06-10 17:14:00,
2013-06-10 10:26:00,90.0,28.0,29.71,NNE,19,0.0,-999.0,11,-99.99,,,-99.99,,2013-06-10 17:26:00,
2013-06-10 10:38:00,89.0,25.0,29.71,NNE,33,0.0,-999.0,10,-99.99,,,-99.99,,2013-06-10 17:38:00,
2013-06-10 10:48:00,91.0,27.0,29.70,ESE,104,0.0,-999.0,10,-99.99,,,-99.99,,2013-06-10 17:48:00,
2013-06-10 10:57:00,91.0,27.0,29.70,ESE,104,0.0,-999.0,10,-99.99,,,-99.99,,2013-06-10 17:57:00,
2013-06-10 11:07:00,92.0,28.0,29.70,NE,36,1.0,-999.0,10,-99.99,,,-99.99,,2013-06-10 18:07:00,
2013-06-10 11:14:00,92.0,28.0,29.70,NE,36,1.0,-999.0,10,-99.99,,,-99.99,,2013-06-10 18:14:00,
2013-06-10 11:24:00,93.0,26.0,29.70,East,101,1.0,-999.0,9,-99.99,,,-99.99,,2013-06-10 18:24:00,
2013-06-10 11:34:00,95.0,27.0,29.69,NNE,32,1.0,-999.0,9,-99.99,,,-99.99,,2013-06-10 18:34:00,
2013-06-10 11:47:00,95.0,27.0,29.69,NNE,32,1.0,-999.0,9,-99.99,,,-99.99,,2013-06-10 18:47:00,
2013-06-10 11:55:00,95.0,27.0,29.69,SSE,157,2.0,-999.0,9,-99.99,,,-99.99,,2013-06-10 18:55:00,
2013-06-10 12:02:00,94.0,27.0,29.68,ESE,119,1.0,-999.0,9,-99.99,,,-99.99,,2013-06-10 19:02:00,
2013-06-10 12:12:00,94.0,27.0,29.68,ESE,119,1.0,-999.0,9,-99.99,,,-99.99,,2013-06-10 19:12:00,
2013-06-10 12:22:00,95.0,27.0,29.68,ESE,123,1.0,-999.0,9,-99.99,,,-99.99,,2013-06-10 19:22:00,
2013-06-10 12:32:00,96.0,28.0,29.67,ESE,105,3.0,-999.0,9,-99.99,,,-99.99,,2013-06-10 19:32:00,
2013-06-10 12:42:00,96.0,28.0,29.67,ESE,105,3.0,-999.0,9,-99.99,,,-99.99,,2013-06-10 19:42:00,
2013-06-10 12:52:00,97.0,29.0,29.67,NNW,330,2.0,-999.0,9,-99.99,,,-99.99,,2013-06-10 19:52:00,
2013-06-10 13:02:00,98.0,30.0,29.66,NNE,22,1.0,-999.0,9,-99.99,,,-99.99,,2013-06-10 20:02:00,
2013-06-10 13:12:00,98.0,30.0,29.66,NNE,22,1.0,-999.0,9,-99.99,,,-99.99,,2013-06-10 20:12:00,
2013-06-10 13:22:00,98.0,27.0,29.66,NE,42,2.0,-999.0,8,-99.99,,,-99.99,,2013-06-10 20:22:00,
2013-06-10 13:32:00,99.0,27.0,29.65,North,10,2.0,-999.0,8,-99.99,,,-99.99,,2013-06-10 20:32:00,
2013-06-10 13:42:00,99.0,27.0,29.65,North,10,2.0,-999.0,8,-99.99,,,-99.99,,2013-06-10 20:42:00,
2013-06-10 13:52:00,97.0,26.0,29.64,ESE,112,1.0,-999.0,8,-99.99,,,-99.99,,2013-06-10 20:52:00,
2013-06-10 14:02:00,100.0,28.0,29.64,NNE,17,2.0,-999.0,8,-99.99,,,-99.99,,2013-06-10 21:02:00,
2013-06-10 14:12:00,100.0,28.0,29.64,NNE,17,2.0,-999.0,8,-99.99,,,-99.99,,2013-06-10 21:12:00,
2013-06-10 14:22:00,98.0,27.0,29.63,NNW,329,2.0,-999.0,8,-99.99,,,-99.99,,2013-06-10 21:22:00,
2013-06-10 14:33:00,99.0,27.0,29.63,West,281,3.0,-999.0,8,-99.99,,,-99.99,,2013-06-10 21:33:00,
2013-06-10 14:42:00,99.0,27.0,29.63,West,281,3.0,-999.0,8,-99.99,,,-99.99,,2013-06-10 21:42:00,
2013-06-10 14:53:00,100.0,28.0,29.62,NNE,13,2.0,-999.0,8,-99.99,,,-99.99,,2013-06-10 21:53:00,
2013-06-10 15:02:00,100.0,28.0,29.61,NNE,17,3.0,-999.0,8,-99.99,,,-99.99,,2013-06-10 22:02:00,
2013-06-10 15:12:00,100.0,28.0,29.61,NNE,17,3.0,-999.0,8,-99.99,,,-99.99,,2013-06-10 22:12:00,
2013-06-10 15:22:00,100.0,28.0,29.61,NNE,17,3.0,-999.0,8,-99.99,,,-99.99,,2013-06-10 22:22:00,
2013-06-10 15:33:00,100.0,28.0,29.60,NNE,19,3.0,-999.0,8,-99.99,,,-99.99,,2013-06-10 22:33:00,
2013-06-10 15:42:00,99.0,27.0,29.59,North,10,2.0,-999.0,8,-99.99,,,-99.99,,2013-06-10 22:42:00,
2013-06-10 15:52:00,99.0,27.0,29.59,North,10,2.0,-999.0,8,-99.99,,,-99.99,,2013-06-10 22:52:00,
2013-06-10 16:02:00,99.0,27.0,29.59,North,360,1.0,-999.0,8,-99.99,,,-99.99,,2013-06-10 23:02:00,
2013-06-10 16:11:00,99.0,27.0,29.59,North,360,1.0,-999.0,8,-99.99,,,-99.99,,2013-06-10 23:11:00,
2013-06-10 16:22:00,97.0,26.0,29.59,NE,42,2.0,-999.0,8,-99.99,,,-99.99,,2013-06-10 23:22:00,
2013-06-10 16:32:00,99.0,27.0,29.59,North,351,5.0,-999.0,8,-99.99,,,-99.99,,2013-06-10 23:32:00,
2013-06-10 16:42:00,99.0,27.0,29.59,North,351,5.0,-999.0,8,-99.99,,,-99.99,,2013-06-10 23:42:00,
2013-06-10 16:52:00,99.0,27.0,29.59,North,351,5.0,-999.0,8,-99.99,,,-99.99,,2013-06-10 23:52:00,
2013-06-10 17:02:00,99.0,27.0,29.58,NNE,28,3.0,-999.0,8,-99.99,,,-99.99,,2013-06-11 00:02:00,
2013-06-10 17:12:00,97.0,26.0,29.58,NNE,13,6.0,-999.0,8,-99.99,,,-99.99,,2013-06-11 00:12:00,
2013-06-10 17:22:00,97.0,26.0,29.58,NNE,13,6.0,-999.0,8,-99.99,,,-99.99,,2013-06-11 00:22:00,
2013-06-10 17:32:00,97.0,26.0,29.58,NW,309,6.0,-999.0,8,-99.99,,,-99.99,,2013-06-11 00:32:00,
2013-06-10 17:52:00,96.0,25.0,29.58,North,351,4.0,-999.0,8,-99.99,,,-99.99,,2013-06-11 00:52:00,
2013-06-10 18:02:00,95.0,24.0,29.58,North,11,5.0,-999.0,8,-99.99,,,-99.99,,2013-06-11 01:02:00,
2013-06-10 18:11:00,95.0,24.0,29.58,North,11,5.0,-999.0,8,-99.99,,,-99.99,,2013-06-11 01:11:00,
2013-06-10 18:22:00,94.0,27.0,29.58,North,350,4.0,-999.0,9,-99.99,,,-99.99,,2013-06-11 01:22:00,
2013-06-10 18:32:00,94.0,27.0,29.58,NW,325,3.0,-999.0,9,-99.99,,,-99.99,,2013-06-11 01:32:00,
2013-06-10 18:42:00,94.0,27.0,29.58,NW,325,3.0,-999.0,9,-99.99,,,-99.99,,2013-06-11 01:42:00,
2013-06-10 18:52:00,93.0,26.0,29.59,NW,313,4.0,-999.0,9,-99.99,,,-99.99,,2013-06-11 01:52:00,
2013-06-10 19:02:00,92.0,25.0,29.58,NW,311,3.0,-999.0,9,-99.99,,,-99.99,,2013-06-11 02:02:00,
2013-06-10 19:12:00,92.0,25.0,29.58,NW,311,3.0,-999.0,9,-99.99,,,-99.99,,2013-06-11 02:12:00,
2013-06-10 19:22:00,91.0,24.0,29.59,NNW,329,2.0,-999.0,9,-99.99,,,-99.99,,2013-06-11 02:22:00,
2013-06-10 19:32:00,89.0,23.0,29.59,NNW,342,1.0,-999.0,9,-99.99,,,-99.99,,2013-06-11 02:32:00,
2013-06-10 19:42:00,88.0,22.0,29.59,NW,315,2.0,-999.0,9,-99.99,,,-99.99,,2013-06-11 02:42:00,
2013-06-10 19:52:00,88.0,22.0,29.59,NW,315,2.0,-999.0,9,-99.99,,,-99.99,,2013-06-11 02:52:00,
2013-06-10 20:02:00,87.0,21.0,29.60,NW,312,2.0,-999.0,9,-99.99,,,-99.99,,2013-06-11 03:02:00,
2013-06-10 20:12:00,86.0,21.0,29.60,NW,307,1.0,-999.0,9,-99.99,,,-99.99,,2013-06-11 03:12:00,
2013-06-10 20:22:00,86.0,21.0,29.60,NW,307,1.0,-999.0,9,-99.99,,,-99.99,,2013-06-11 03:22:00,
2013-06-10 20:32:00,84.0,19.0,29.61,NW,307,1.0,-999.0,9,-99.99,,,-99.99,,2013-06-11 03:32:00,
2013-06-10 20:42:00,84.0,22.0,29.61,NW,304,1.0,-999.0,10,-99.99,,,-99.99,,2013-06-11 03:42:00,
2013-06-10 20:53:00,84.0,22.0,29.61,NW,304,1.0,-999.0,10,-99.99,,,-99.99,,2013-06-11 03:53:00,
2013-06-10 21:02:00,82.0,20.0,29.62,WNW,290,1.0,-999.0,10,-99.99,,,-99.99,,2013-06-11 04:02:00,
2013-06-10 21:12:00,82.0,20.0,29.62,WNW,290,1.0,-999.0,10,-99.99,,,-99.99,,2013-06-11 04:12:00,
2013-06-10 21:22:00,81.0,19.0,29.62,WNW,287,1.0,-999.0,10,-99.99,,,-99.99,,2013-06-11 04:22:00,
2013-06-10 21:33:00,82.0,20.0,29.62,West,277,3.0,-999.0,10,-99.99,,,-99.99,,2013-06-11 04:33:00,
2013-06-10 21:42:00,82.0,20.0,29.62,West,277,3.0,-999.0,10,-99.99,,,-99.99,,2013-06-11 04:42:00,
2013-06-10 21:52:00,82.0,20.0,29.63,WNW,290,4.0,-999.0,10,-99.99,,,-99.99,,2013-06-11 04:52:00,
2013-06-10 22:02:00,82.0,22.0,29.63,WNW,288,2.0,-999.0,11,-99.99,,,-99.99,,2013-06-11 05:02:00,
2013-06-10 22:12:00,82.0,22.0,29.63,WNW,288,2.0,-999.0,11,-99.99,,,-99.99,,2013-06-11 05:12:00,
2013-06-10 22:22:00,81.0,22.0,29.63,WNW,289,0.0,-999.0,11,-99.99,,,-99.99,,2013-06-11 05:22:00,
2013-06-10 22:32:00,81.0,24.0,29.63,WNW,286,1.0,-999.0,12,-99.99,,,-99.99,,2013-06-11 05:32:00,
2013-06-10 22:42:00,81.0,24.0,29.63,WNW,286,1.0,-999.0,12,-99.99,,,-99.99,,2013-06-11 05:42:00,
2013-06-10 22:52:00,80.0,23.0,29.64,WNW,290,0.0,-999.0,12,-99.99,,,-99.99,,2013-06-11 05:52:00,
2013-06-10 23:02:00,79.0,24.0,29.64,WNW,291,0.0,-999.0,13,-99.99,,,-99.99,,2013-06-11 06:02:00,
2013-06-10 23:12:00,79.0,24.0,29.64,WNW,291,0.0,-999.0,13,-99.99,,,-99.99,,2013-06-11 06:12:00,
2013-06-10 23:22:00,79.0,26.0,29.64,WNW,291,0.0,-999.0,14,-99.99,,,-99.99,,2013-06-11 06:22:00,
2013-06-10 23:32:00,77.0,24.0,29.64,WNW,290,1.0,-999.0,14,-99.99,,,-99.99,,2013-06-11 06:32:00,
2013-06-10 23:42:00,77.0,24.0,29.64,WNW,290,0.0,-999.0,14,-99.99,,,-99.99,,2013-06-11 06:42:00,
2013-06-10 23:52:00,77.0,24.0,29.64,WNW,290,0.0,-999.0,14,-99.99,,,-99.99,,2013-06-11 06:52:00,